| time (UTC) | temp C | wind direction | speed KPH | gust KPH | rain 1hr cm | rain 24hr cm | rain mn cm | humidity % | barometer mb |
| 20260506034602 | 7 | 0 | 0.0 | 0.0 | 0.00 | 2.41 | 2.41 | 97 | 1014.5 |
| 20260506033100 | 7 | 0 | 0.0 | 0.0 | 0.03 | 2.41 | 2.41 | 97 | 1014.4 |
| 20260506031603 | 7 | 0 | 0.0 | 0.0 | 0.03 | 2.41 | 2.41 | 97 | 1014.0 |
| 20260506030056 | 7 | 0 | 0.0 | 0.0 | 0.03 | 2.41 | 2.41 | 97 | 1014.0 |
| 20260506024613 | 7 | 0 | 0.0 | 0.0 | 0.08 | 2.41 | 2.41 | 97 | 1013.8 |
| 20260506023058 | 7 | 0 | 0.0 | 0.0 | 0.05 | 2.39 | 2.39 | 97 | 1013.9 |
| 20260506021559 | 7 | 0 | 0.0 | 0.0 | 0.08 | 2.39 | 2.39 | 97 | 1013.6 |
| 20260506020123 | 7 | 0 | 0.0 | 1.6 | 0.15 | 2.39 | 2.39 | 96 | 1014.4 |
| 20260506014600 | 7 | 311 | 0.0 | 3.2 | 0.10 | 2.34 | 2.34 | 96 | 1013.6 |
| 20260506013100 | 7 | 0 | 0.0 | 0.0 | 0.13 | 2.34 | 2.34 | 96 | 1013.2 |
| 20260506011603 | 7 | 0 | 0.0 | 0.0 | 0.13 | 2.31 | 2.31 | 96 | 1013.2 |
| 20260506010104 | 7 | 0 | 0.0 | 0.0 | 0.08 | 2.24 | 2.24 | 96 | 1013.4 |
| 20260506004557 | 6 | 0 | 0.0 | 0.0 | 0.18 | 2.24 | 2.24 | 95 | 1012.8 |
| 20260506003058 | 6 | 0 | 0.0 | 1.6 | 0.18 | 2.21 | 2.21 | 95 | 1012.7 |
| 20260506001607 | 6 | 0 | 0.0 | 4.8 | 0.20 | 2.18 | 2.18 | 94 | 1012.7 |
| 20260506000122 | 7 | 0 | 1.6 | 6.4 | 0.18 | 2.16 | 2.16 | 94 | 1012.5 |
| 20260505234613 | 7 | 148 | 0.0 | 4.8 | 0.08 | 2.06 | 2.06 | 94 | 1012.3 |
| 20260505233056 | 7 | 338 | 1.6 | 3.2 | 0.05 | 2.03 | 2.03 | 94 | 1012.3 |
| 20260505231559 | 7 | 28 | 0.0 | 4.8 | 0.00 | 1.98 | 1.98 | 93 | 1012.1 |
| 20260505230058 | 7 | 0 | 0.0 | 1.6 | 0.00 | 1.98 | 1.98 | 93 | 1011.8 |
| 20260505224557 | 7 | 22 | 0.0 | 3.2 | 0.00 | 1.98 | 1.98 | 94 | 1011.7 |
| 20260505223104 | 8 | 0 | 0.0 | 1.6 | 0.00 | 1.98 | 1.98 | 94 | 1011.5 |
| 20260505221601 | 8 | 0 | 0.0 | 3.2 | 0.00 | 1.98 | 1.98 | 94 | 1011.4 |
| 20260505220107 | 8 | 0 | 0.0 | 4.8 | 0.05 | 1.98 | 1.98 | 95 | 1011.5 |
| 20260505214605 | 8 | 345 | 0.0 | 1.6 | 0.18 | 1.98 | 1.98 | 95 | 1011.7 |
| 20260505213055 | 8 | 0 | 0.0 | 1.6 | 0.28 | 1.98 | 1.98 | 95 | 1011.6 |
| 20260505211631 | 8 | 0 | 0.0 | 4.8 | 0.33 | 1.98 | 1.98 | 95 | 1011.9 |
| 20260505210059 | 8 | 0 | 0.0 | 4.8 | 0.36 | 1.93 | 1.93 | 95 | 1011.8 |
| 20260505204605 | 8 | 0 | 0.0 | 8.0 | 0.36 | 1.80 | 1.80 | 94 | 1012.4 |
| 20260505203057 | 8 | 0 | 0.0 | 8.0 | 0.28 | 1.70 | 1.70 | 94 | 1012.1 |
| 20260505201555 | 8 | 291 | 0.0 | 8.0 | 0.28 | 1.65 | 1.65 | 94 | 1012.2 |
| 20260505200058 | 8 | 267 | 0.0 | 3.2 | 0.25 | 1.57 | 1.57 | 94 | 1012.5 |
| 20260505194557 | 8 | 288 | 0.0 | 6.4 | 0.28 | 1.45 | 1.45 | 93 | 1012.8 |
| 20260505193057 | 8 | 5 | 1.6 | 6.4 | 0.36 | 1.42 | 1.42 | 92 | 1012.9 |
| 20260505191604 | 8 | 306 | 1.6 | 6.4 | 0.36 | 1.37 | 1.37 | 92 | 1012.8 |
| 20260505190113 | 8 | 20 | 0.0 | 4.8 | 0.36 | 1.32 | 1.32 | 90 | 1012.5 |
| 20260505184556 | 9 | 302 | 0.0 | 4.8 | 0.20 | 1.17 | 1.17 | 89 | 1012.8 |
| 20260505183100 | 10 | 0 | 0.0 | 4.8 | 0.10 | 1.07 | 1.07 | 86 | 1012.7 |
| 20260505181640 | 10 | 40 | 1.6 | 6.4 | 0.05 | 1.02 | 1.02 | 77 | 1013.0 |
| 20260505180106 | 10 | 0 | 0.0 | 3.2 | 0.00 | 0.97 | 0.97 | 74 | 1013.3 |
| 20260505174558 | 10 | 314 | 1.6 | 8.0 | 0.00 | 1.02 | 0.97 | 73 | 1013.4 |
| 20260505173100 | 11 | 0 | 0.0 | 4.8 | 0.00 | 1.02 | 0.97 | 81 | 1013.1 |
| 20260505171604 | 11 | 0 | 0.0 | 1.6 | 0.00 | 1.02 | 0.97 | 74 | 1013.0 |
| 20260505170100 | 11 | 0 | 0.0 | 3.2 | 0.00 | 1.02 | 0.97 | 73 | 1012.5 |
| 20260505164600 | 12 | 305 | 0.0 | 3.2 | 0.00 | 1.07 | 0.97 | 73 | 1012.2 |
| 20260505163058 | 12 | 0 | 0.0 | 6.4 | 0.00 | 1.07 | 0.97 | 67 | 1012.2 |
| 20260505161559 | 13 | 129 | 0.0 | 6.4 | 0.00 | 1.07 | 0.97 | 73 | 1011.8 |
| 20260505153103 | 12 | 141 | 0.0 | 4.8 | 0.00 | 1.07 | 0.97 | 76 | 1011.7 |
| 20260505151608 | 12 | 0 | 0.0 | 3.2 | 0.00 | 1.07 | 0.97 | 78 | 1011.8 |
| 20260505140108 | 10 | 0 | 0.0 | 3.2 | 0.08 | 1.07 | 0.97 | 85 | 1011.4 |
| 20260505130110 | 8 | 123 | 0.0 | 3.2 | 0.33 | 0.99 | 0.89 | 92 | 1011.7 |
| 20260505124617 | 8 | 53 | 0.0 | 6.4 | 0.33 | 0.97 | 0.86 | 92 | 1011.2 |
| 20260505123117 | 9 | 44 | 1.6 | 6.4 | 0.38 | 0.89 | 0.79 | 93 | 1011.2 |
| 20260505121557 | 10 | 271 | 1.6 | 6.4 | 0.20 | 0.71 | 0.61 | 93 | 1012.7 |
| 20260505120124 | 10 | 330 | 3.2 | 14.5 | 0.15 | 0.66 | 0.56 | 92 | 1011.6 |
| 20260505114557 | 10 | 302 | 0.0 | 4.8 | 0.13 | 0.64 | 0.53 | 83 | 1010.8 |
| 20260505113056 | 10 | 61 | 0.0 | 3.2 | 0.00 | 0.51 | 0.41 | 85 | 1009.8 |
| 20260505111556 | 11 | 28 | 0.0 | 3.2 | 0.00 | 0.51 | 0.41 | 86 | 1010.0 |
| 20260505110112 | 11 | 0 | 0.0 | 1.6 | 0.00 | 0.51 | 0.41 | 88 | 1009.7 |
| 20260505101603 | 12 | 46 | 0.0 | 3.2 | 0.25 | 0.51 | 0.41 | 90 | 1009.5 |
| 20260505100101 | 13 | 17 | 1.6 | 6.4 | 0.25 | 0.51 | 0.41 | 93 | 1009.3 |
| 20260505094559 | 13 | 0 | 0.0 | 11.3 | 0.25 | 0.51 | 0.41 | 95 | 1009.4 |
| 20260505093058 | 14 | 345 | 0.0 | 3.2 | 0.08 | 0.33 | 0.23 | 95 | 1008.9 |
| 20260505091600 | 14 | 0 | 0.0 | 0.0 | 0.00 | 0.25 | 0.15 | 95 | 1009.0 |
| 20260505090059 | 14 | 0 | 0.0 | 0.0 | 0.00 | 0.25 | 0.15 | 94 | 1008.3 |
| 20260505084605 | 14 | 0 | 0.0 | 0.0 | 0.00 | 0.25 | 0.15 | 94 | 1007.9 |
| 20260505083112 | 14 | 86 | 0.0 | 1.6 | 0.00 | 0.25 | 0.15 | 94 | 1007.8 |
| 20260505081606 | 14 | 0 | 0.0 | 1.6 | 0.00 | 0.25 | 0.15 | 93 | 1007.8 |
| 20260505080104 | 14 | 0 | 0.0 | 0.0 | 0.03 | 0.25 | 0.15 | 92 | 1007.4 |
| 20260505074558 | 15 | 0 | 0.0 | 1.6 | 0.13 | 0.25 | 0.15 | 91 | 1007.4 |
| 20260505073104 | 15 | 127 | 0.0 | 1.6 | 0.15 | 0.25 | 0.15 | 90 | 1007.6 |
| 20260505071609 | 15 | 0 | 0.0 | 1.6 | 0.15 | 0.25 | 0.15 | 88 | 1008.1 |
| 20260505070107 | 15 | 78 | 0.0 | 3.2 | 0.13 | 0.23 | 0.13 | 86 | 1008.1 |
| 20260505064702 | 16 | 25 | 3.2 | 20.9 | 0.03 | 0.13 | 0.03 | 73 | 1008.7 |
| 20260505063101 | 20 | 324 | 6.4 | 25.7 | 0.00 | 0.10 | 0.00 | 66 | 1008.9 |
| 20260505061601 | 21 | 297 | 1.6 | 9.7 | 0.00 | 0.10 | 0.00 | 65 | 1006.6 |
| 20260505060058 | 21 | 280 | 1.6 | 8.0 | 0.00 | 0.10 | 0.00 | 64 | 1006.2 |
| 20260505054558 | 21 | 223 | 1.6 | 12.9 | 0.00 | 0.10 | 0.00 | 64 | 1005.8 |
| 20260505053100 | 21 | 238 | 1.6 | 9.7 | 0.00 | 0.10 | 0.00 | 64 | 1005.6 |
| 20260505051558 | 21 | 203 | 1.6 | 14.5 | 0.00 | 0.10 | 0.00 | 64 | 1005.7 |
| 20260505050110 | 21 | 123 | 3.2 | 14.5 | 0.00 | 0.10 | 0.00 | 63 | 1005.3 |
| 20260505041607 | 21 | 91 | 0.0 | 11.3 | 0.00 | 0.30 | 0.10 | 63 | 1004.8 |
| 20260505040104 | 22 | 248 | 0.0 | 6.4 | 0.00 | 0.30 | 0.10 | 63 | 1005.1 |